TimePST,TemperatureF,Dew PointF,Humidity,Sea Level PressureIn,VisibilityMPH,Wind Direction,Wind SpeedMPH,Gust SpeedMPH,PrecipitationIn,Events,Conditions,WindDirDegrees,DateUTC
12:27 AM,37.4,35.6,93,30.15,0.5,West,3.5,-,N/A,Fog,Fog,280,2013-02-04 08:27:00
12:53 AM,37.9,37.0,97,30.12,0.5,Calm,Calm,-,N/A,Fog,Fog,0,2013-02-04 08:53:00
1:15 AM,37.4,37.4,100,30.15,0.2,Calm,Calm,-,N/A,Fog,Fog,0,2013-02-04 09:15:00
3:08 AM,39.2,39.2,100,30.14,0.2,Calm,Calm,-,N/A,Fog,Fog,0,2013-02-04 11:08:00
3:53 AM,41.0,39.9,96,30.12,0.2,Calm,Calm,-,N/A,Fog,Fog,0,2013-02-04 11:53:00
4:53 AM,41.0,39.9,96,30.13,0.2,Calm,Calm,-,N/A,Fog,Fog,0,2013-02-04 12:53:00
5:53 AM,39.9,39.0,97,30.12,0.2,Calm,Calm,-,N/A,Fog,Fog,0,2013-02-04 13:53:00
6:41 AM,39.2,39.2,100,30.15,0.5,Calm,Calm,-,N/A,Fog,Fog,0,2013-02-04 14:41:00
6:51 AM,39.2,39.2,100,30.15,0.2,Calm,Calm,-,N/A,Fog,Fog,0,2013-02-04 14:51:00
6:53 AM,39.9,39.0,97,30.14,0.2,Calm,Calm,-,N/A,Fog,Fog,0,2013-02-04 14:53:00
7:53 AM,39.9,39.0,97,30.14,0.2,Calm,Calm,-,N/A,Fog,Fog,0,2013-02-04 15:53:00
8:53 AM,39.9,39.9,100,30.16,0.2,Calm,Calm,-,N/A,Fog,Fog,0,2013-02-04 16:53:00
9:53 AM,41.0,41.0,100,30.17,0.2,Calm,Calm,-,N/A,Fog,Fog,0,2013-02-04 17:53:00
10:37 AM,42.8,42.8,100,30.17,0.5,ESE,3.5,-,N/A,Fog,Fog,120,2013-02-04 18:37:00
10:53 AM,43.0,42.1,97,30.16,0.5,Calm,Calm,-,N/A,Fog,Fog,0,2013-02-04 18:53:00
11:53 AM,45.0,43.0,93,30.15,1.0,SSE,4.6,-,N/A,Fog,Fog,160,2013-02-04 19:53:00
12:00 PM,46.4,42.8,87,30.15,1.0,South,5.8,-,N/A,,Overcast,180,2013-02-04 20:00:00
12:09 PM,46.4,42.8,87,30.15,3.0,SE,5.8,-,N/A,,Overcast,140,2013-02-04 20:09:00
12:35 PM,48.2,44.6,87,30.14,3.0,South,6.9,-,N/A,,Overcast,170,2013-02-04 20:35:00
12:53 PM,48.9,45.0,86,30.12,4.0,SSE,6.9,-,N/A,,Overcast,150,2013-02-04 20:53:00
1:24 PM,51.8,46.4,82,30.12,8.0,SSW,4.6,-,N/A,,Mostly Cloudy,200,2013-02-04 21:24:00
1:33 PM,51.8,46.4,82,30.11,8.0,South,5.8,-,N/A,,Mostly Cloudy,180,2013-02-04 21:33:00
1:53 PM,53.1,46.9,80,30.09,8.0,South,4.6,-,N/A,,Mostly Cloudy,180,2013-02-04 21:53:00
2:53 PM,55.0,46.9,74,30.07,8.0,SSE,4.6,-,N/A,,Mostly Cloudy,160,2013-02-04 22:53:00
3:53 PM,54.0,46.0,75,30.07,8.0,SE,6.9,-,N/A,,Mostly Cloudy,140,2013-02-04 23:53:00
4:53 PM,52.0,45.0,77,30.06,8.0,SSE,5.8,-,N/A,,Mostly Cloudy,160,2013-02-05 00:53:00
5:53 PM,48.0,44.1,86,30.06,8.0,South,5.8,-,N/A,,Mostly Cloudy,180,2013-02-05 01:53:00
6:53 PM,45.0,42.1,90,30.07,8.0,SE,5.8,-,N/A,,Clear,130,2013-02-05 02:53:00
7:49 PM,44.6,42.8,93,30.08,7.0,SE,4.6,-,N/A,,Scattered Clouds,130,2013-02-05 03:49:00
7:53 PM,44.1,42.1,93,30.06,7.0,SE,3.5,-,N/A,,Mostly Cloudy,140,2013-02-05 03:53:00
8:53 PM,46.9,44.1,90,30.07,7.0,SE,4.6,-,N/A,,Overcast,140,2013-02-05 04:53:00
9:53 PM,46.9,44.1,90,30.08,6.0,Calm,Calm,-,N/A,,Overcast,0,2013-02-05 05:53:00
10:53 PM,46.9,45.0,93,30.08,6.0,Calm,Calm,-,N/A,,Overcast,0,2013-02-05 06:53:00
11:53 PM,46.0,44.1,93,30.08,6.0,Calm,Calm,-,N/A,,Overcast,0,2013-02-05 07:53:00